<?xml version="1.0" encoding="UTF-8" standalone="no" ?>
<gpx xmlns="http://www.topografix.com/GPX/1/1" xmlns:xsi="http://www.w3.org/2001/XMLSchema-instance" xsi:schemaLocation="http://www.topografix.com/GPX/1/1 http://www.topografix.com/GPX/1/1/gpx.xsd" version="1.1" creator="VisuGPX - https://www.visugpx.com">
  <metadata>
    <name>Ternand 2</name>
  </metadata>
  <trk>
    <name><![CDATA[10719373-Ternand 2]]></name>
    <extensions>
      <line xmlns="http://www.topografix.com/GPX/gpx_style/0/2">
        <color>0000FF</color>
        <width>4</width>
      </line>
    </extensions>
    <trkseg>
      <trkpt lat="45.94935" lon="4.52157">
        <ele>360</ele>
        <time>2022-06-12T06:58:05Z</time>
      </trkpt>
      <trkpt lat="45.94948" lon="4.52144">
        <ele>359</ele>
        <time>2022-06-12T06:58:26Z</time>
      </trkpt>
      <trkpt lat="45.94946" lon="4.52163">
        <ele>359</ele>
        <time>2022-06-12T06:58:44Z</time>
      </trkpt>
      <trkpt lat="45.94935" lon="4.52194">
        <ele>359</ele>
        <time>2022-06-12T06:59:16Z</time>
      </trkpt>
      <trkpt lat="45.94928" lon="4.52225">
        <ele>358</ele>
        <time>2022-06-12T06:59:46Z</time>
      </trkpt>
      <trkpt lat="45.94936" lon="4.52235">
        <ele>355</ele>
        <time>2022-06-12T07:00:01Z</time>
      </trkpt>
      <trkpt lat="45.94979" lon="4.52183">
        <ele>353</ele>
        <time>2022-06-12T07:01:16Z</time>
      </trkpt>
      <trkpt lat="45.95003" lon="4.52162">
        <ele>353</ele>
        <time>2022-06-12T07:01:53Z</time>
      </trkpt>
      <trkpt lat="45.95024" lon="4.52131">
        <ele>351</ele>
        <time>2022-06-12T07:02:33Z</time>
      </trkpt>
      <trkpt lat="45.9504" lon="4.52115">
        <ele>349</ele>
        <time>2022-06-12T07:02:59Z</time>
      </trkpt>
      <trkpt lat="45.95042" lon="4.52092">
        <ele>353</ele>
        <time>2022-06-12T07:03:21Z</time>
      </trkpt>
      <trkpt lat="45.95051" lon="4.52091">
        <ele>351</ele>
        <time>2022-06-12T07:03:33Z</time>
      </trkpt>
      <trkpt lat="45.9506" lon="4.52086">
        <ele>350</ele>
        <time>2022-06-12T07:03:46Z</time>
      </trkpt>
      <trkpt lat="45.95074" lon="4.52068">
        <ele>349</ele>
        <time>2022-06-12T07:04:11Z</time>
      </trkpt>
      <trkpt lat="45.95092" lon="4.52037">
        <ele>351</ele>
        <time>2022-06-12T07:04:48Z</time>
      </trkpt>
      <trkpt lat="45.95144" lon="4.51977">
        <ele>350</ele>
        <time>2022-06-12T07:06:17Z</time>
      </trkpt>
      <trkpt lat="45.9519" lon="4.51929">
        <ele>347</ele>
        <time>2022-06-12T07:07:33Z</time>
      </trkpt>
      <trkpt lat="45.95206" lon="4.51897">
        <ele>348</ele>
        <time>2022-06-12T07:08:10Z</time>
      </trkpt>
      <trkpt lat="45.95244" lon="4.51856">
        <ele>345</ele>
        <time>2022-06-12T07:09:13Z</time>
      </trkpt>
      <trkpt lat="45.95259" lon="4.5182">
        <ele>350</ele>
        <time>2022-06-12T07:09:52Z</time>
      </trkpt>
      <trkpt lat="45.95274" lon="4.51801">
        <ele>352</ele>
        <time>2022-06-12T07:10:19Z</time>
      </trkpt>
      <trkpt lat="45.95284" lon="4.51778">
        <ele>355</ele>
        <time>2022-06-12T07:10:44Z</time>
      </trkpt>
      <trkpt lat="45.95285" lon="4.51765">
        <ele>358</ele>
        <time>2022-06-12T07:10:56Z</time>
      </trkpt>
      <trkpt lat="45.95275" lon="4.51768">
        <ele>361</ele>
        <time>2022-06-12T07:11:10Z</time>
      </trkpt>
      <trkpt lat="45.95267" lon="4.51776">
        <ele>361</ele>
        <time>2022-06-12T07:11:23Z</time>
      </trkpt>
      <trkpt lat="45.9525" lon="4.51787">
        <ele>362</ele>
        <time>2022-06-12T07:11:47Z</time>
      </trkpt>
      <trkpt lat="45.95251" lon="4.51774">
        <ele>366</ele>
        <time>2022-06-12T07:12:00Z</time>
      </trkpt>
      <trkpt lat="45.95267" lon="4.51726">
        <ele>373</ele>
        <time>2022-06-12T07:12:49Z</time>
      </trkpt>
      <trkpt lat="45.95279" lon="4.51704">
        <ele>374</ele>
        <time>2022-06-12T07:13:15Z</time>
      </trkpt>
      <trkpt lat="45.9527" lon="4.51706">
        <ele>376</ele>
        <time>2022-06-12T07:13:27Z</time>
      </trkpt>
      <trkpt lat="45.95209" lon="4.51746">
        <ele>379</ele>
        <time>2022-06-12T07:14:56Z</time>
      </trkpt>
      <trkpt lat="45.95321" lon="4.51462">
        <ele>400</ele>
        <time>2022-06-12T07:19:59Z</time>
      </trkpt>
      <trkpt lat="45.95324" lon="4.5145">
        <ele>401</ele>
        <time>2022-06-12T07:20:11Z</time>
      </trkpt>
      <trkpt lat="45.95355" lon="4.51398">
        <ele>400</ele>
        <time>2022-06-12T07:21:15Z</time>
      </trkpt>
      <trkpt lat="45.95359" lon="4.51385">
        <ele>400</ele>
        <time>2022-06-12T07:21:28Z</time>
      </trkpt>
      <trkpt lat="45.95371" lon="4.51304">
        <ele>404</ele>
        <time>2022-06-12T07:22:45Z</time>
      </trkpt>
      <trkpt lat="45.95378" lon="4.51279">
        <ele>405</ele>
        <time>2022-06-12T07:23:10Z</time>
      </trkpt>
      <trkpt lat="45.95395" lon="4.51245">
        <ele>408</ele>
        <time>2022-06-12T07:23:49Z</time>
      </trkpt>
      <trkpt lat="45.95445" lon="4.51183">
        <ele>415</ele>
        <time>2022-06-12T07:25:17Z</time>
      </trkpt>
      <trkpt lat="45.95458" lon="4.51147">
        <ele>420</ele>
        <time>2022-06-12T07:25:54Z</time>
      </trkpt>
      <trkpt lat="45.95473" lon="4.51131">
        <ele>423</ele>
        <time>2022-06-12T07:26:19Z</time>
      </trkpt>
      <trkpt lat="45.95478" lon="4.51119">
        <ele>425</ele>
        <time>2022-06-12T07:26:32Z</time>
      </trkpt>
      <trkpt lat="45.95491" lon="4.51101">
        <ele>429</ele>
        <time>2022-06-12T07:26:56Z</time>
      </trkpt>
      <trkpt lat="45.95509" lon="4.51069">
        <ele>434</ele>
        <time>2022-06-12T07:27:35Z</time>
      </trkpt>
      <trkpt lat="45.95532" lon="4.51011">
        <ele>438</ele>
        <time>2022-06-12T07:28:37Z</time>
      </trkpt>
      <trkpt lat="45.95538" lon="4.50986">
        <ele>441</ele>
        <time>2022-06-12T07:29:01Z</time>
      </trkpt>
      <trkpt lat="45.95541" lon="4.50959">
        <ele>443</ele>
        <time>2022-06-12T07:29:26Z</time>
      </trkpt>
      <trkpt lat="45.95561" lon="4.50915">
        <ele>449</ele>
        <time>2022-06-12T07:30:15Z</time>
      </trkpt>
      <trkpt lat="45.95569" lon="4.50906">
        <ele>452</ele>
        <time>2022-06-12T07:30:29Z</time>
      </trkpt>
      <trkpt lat="45.95592" lon="4.50865">
        <ele>461</ele>
        <time>2022-06-12T07:31:18Z</time>
      </trkpt>
      <trkpt lat="45.95601" lon="4.50841">
        <ele>466</ele>
        <time>2022-06-12T07:31:43Z</time>
      </trkpt>
      <trkpt lat="45.95613" lon="4.50821">
        <ele>469</ele>
        <time>2022-06-12T07:32:07Z</time>
      </trkpt>
      <trkpt lat="45.95628" lon="4.50788">
        <ele>475</ele>
        <time>2022-06-12T07:32:44Z</time>
      </trkpt>
      <trkpt lat="45.95624" lon="4.50762">
        <ele>478</ele>
        <time>2022-06-12T07:33:09Z</time>
      </trkpt>
      <trkpt lat="45.95616" lon="4.50738">
        <ele>480</ele>
        <time>2022-06-12T07:33:33Z</time>
      </trkpt>
      <trkpt lat="45.95615" lon="4.50724">
        <ele>481</ele>
        <time>2022-06-12T07:33:46Z</time>
      </trkpt>
      <trkpt lat="45.9562" lon="4.50685">
        <ele>485</ele>
        <time>2022-06-12T07:34:23Z</time>
      </trkpt>
      <trkpt lat="45.95608" lon="4.50511">
        <ele>508</ele>
        <time>2022-06-12T07:37:05Z</time>
      </trkpt>
      <trkpt lat="45.95616" lon="4.50458">
        <ele>512</ele>
        <time>2022-06-12T07:37:56Z</time>
      </trkpt>
      <trkpt lat="45.95616" lon="4.50417">
        <ele>516</ele>
        <time>2022-06-12T07:38:34Z</time>
      </trkpt>
      <trkpt lat="45.9561" lon="4.50391">
        <ele>516</ele>
        <time>2022-06-12T07:38:59Z</time>
      </trkpt>
      <trkpt lat="45.95598" lon="4.5037">
        <ele>519</ele>
        <time>2022-06-12T07:39:24Z</time>
      </trkpt>
      <trkpt lat="45.95579" lon="4.50321">
        <ele>523</ele>
        <time>2022-06-12T07:40:17Z</time>
      </trkpt>
      <trkpt lat="45.95539" lon="4.50261">
        <ele>526</ele>
        <time>2022-06-12T07:41:34Z</time>
      </trkpt>
      <trkpt lat="45.95535" lon="4.5025">
        <ele>527</ele>
        <time>2022-06-12T07:41:45Z</time>
      </trkpt>
      <trkpt lat="45.95521" lon="4.50233">
        <ele>531</ele>
        <time>2022-06-12T07:42:10Z</time>
      </trkpt>
      <trkpt lat="45.95505" lon="4.5022">
        <ele>537</ele>
        <time>2022-06-12T07:42:34Z</time>
      </trkpt>
      <trkpt lat="45.95493" lon="4.502">
        <ele>539</ele>
        <time>2022-06-12T07:42:59Z</time>
      </trkpt>
      <trkpt lat="45.95422" lon="4.50134">
        <ele>545</ele>
        <time>2022-06-12T07:44:51Z</time>
      </trkpt>
      <trkpt lat="45.95403" lon="4.50104">
        <ele>548</ele>
        <time>2022-06-12T07:45:29Z</time>
      </trkpt>
      <trkpt lat="45.95382" lon="4.50059">
        <ele>551</ele>
        <time>2022-06-12T07:46:19Z</time>
      </trkpt>
      <trkpt lat="45.95357" lon="4.50016">
        <ele>553</ele>
        <time>2022-06-12T07:47:11Z</time>
      </trkpt>
      <trkpt lat="45.95341" lon="4.49967">
        <ele>559</ele>
        <time>2022-06-12T07:48:02Z</time>
      </trkpt>
      <trkpt lat="45.95305" lon="4.49799">
        <ele>569</ele>
        <time>2022-06-12T07:50:45Z</time>
      </trkpt>
      <trkpt lat="45.95281" lon="4.4974">
        <ele>574</ele>
        <time>2022-06-12T07:51:48Z</time>
      </trkpt>
      <trkpt lat="45.95254" lon="4.49725">
        <ele>579</ele>
        <time>2022-06-12T07:52:27Z</time>
      </trkpt>
      <trkpt lat="45.95245" lon="4.49723">
        <ele>580</ele>
        <time>2022-06-12T07:52:39Z</time>
      </trkpt>
      <trkpt lat="45.95237" lon="4.49717">
        <ele>581</ele>
        <time>2022-06-12T07:52:51Z</time>
      </trkpt>
      <trkpt lat="45.95228" lon="4.49714">
        <ele>582</ele>
        <time>2022-06-12T07:53:03Z</time>
      </trkpt>
      <trkpt lat="45.9522" lon="4.49707">
        <ele>584</ele>
        <time>2022-06-12T07:53:16Z</time>
      </trkpt>
      <trkpt lat="45.95201" lon="4.49702">
        <ele>585</ele>
        <time>2022-06-12T07:53:42Z</time>
      </trkpt>
      <trkpt lat="45.95183" lon="4.49693">
        <ele>588</ele>
        <time>2022-06-12T07:54:07Z</time>
      </trkpt>
      <trkpt lat="45.95155" lon="4.49689">
        <ele>588</ele>
        <time>2022-06-12T07:54:45Z</time>
      </trkpt>
      <trkpt lat="45.95137" lon="4.4968">
        <ele>589</ele>
        <time>2022-06-12T07:55:10Z</time>
      </trkpt>
      <trkpt lat="45.9512" lon="4.49667">
        <ele>591</ele>
        <time>2022-06-12T07:55:36Z</time>
      </trkpt>
      <trkpt lat="45.95107" lon="4.49646">
        <ele>595</ele>
        <time>2022-06-12T07:56:02Z</time>
      </trkpt>
      <trkpt lat="45.95094" lon="4.4961">
        <ele>602</ele>
        <time>2022-06-12T07:56:39Z</time>
      </trkpt>
      <trkpt lat="45.95072" lon="4.49584">
        <ele>606</ele>
        <time>2022-06-12T07:57:17Z</time>
      </trkpt>
      <trkpt lat="45.95063" lon="4.49581">
        <ele>606</ele>
        <time>2022-06-12T07:57:30Z</time>
      </trkpt>
      <trkpt lat="45.95035" lon="4.4959">
        <ele>602</ele>
        <time>2022-06-12T07:58:08Z</time>
      </trkpt>
      <trkpt lat="45.95016" lon="4.49589">
        <ele>601</ele>
        <time>2022-06-12T07:58:33Z</time>
      </trkpt>
      <trkpt lat="45.94998" lon="4.49582">
        <ele>601</ele>
        <time>2022-06-12T07:58:58Z</time>
      </trkpt>
      <trkpt lat="45.94989" lon="4.49577">
        <ele>602</ele>
        <time>2022-06-12T07:59:11Z</time>
      </trkpt>
      <trkpt lat="45.94982" lon="4.49568">
        <ele>603</ele>
        <time>2022-06-12T07:59:24Z</time>
      </trkpt>
      <trkpt lat="45.94958" lon="4.49547">
        <ele>604</ele>
        <time>2022-06-12T08:00:01Z</time>
      </trkpt>
      <trkpt lat="45.94954" lon="4.49535">
        <ele>606</ele>
        <time>2022-06-12T08:00:13Z</time>
      </trkpt>
      <trkpt lat="45.94945" lon="4.49533">
        <ele>605</ele>
        <time>2022-06-12T08:00:26Z</time>
      </trkpt>
      <trkpt lat="45.94936" lon="4.49527">
        <ele>606</ele>
        <time>2022-06-12T08:00:39Z</time>
      </trkpt>
      <trkpt lat="45.94923" lon="4.49508">
        <ele>607</ele>
        <time>2022-06-12T08:01:04Z</time>
      </trkpt>
      <trkpt lat="45.94921" lon="4.49495">
        <ele>607</ele>
        <time>2022-06-12T08:01:16Z</time>
      </trkpt>
      <trkpt lat="45.94926" lon="4.49456">
        <ele>610</ele>
        <time>2022-06-12T08:01:53Z</time>
      </trkpt>
      <trkpt lat="45.94935" lon="4.49416">
        <ele>612</ele>
        <time>2022-06-12T08:02:32Z</time>
      </trkpt>
      <trkpt lat="45.94925" lon="4.49412">
        <ele>611</ele>
        <time>2022-06-12T08:02:46Z</time>
      </trkpt>
      <trkpt lat="45.94935" lon="4.49344">
        <ele>608</ele>
        <time>2022-06-12T08:03:50Z</time>
      </trkpt>
      <trkpt lat="45.94932" lon="4.4933">
        <ele>607</ele>
        <time>2022-06-12T08:04:04Z</time>
      </trkpt>
      <trkpt lat="45.94926" lon="4.49319">
        <ele>606</ele>
        <time>2022-06-12T08:04:17Z</time>
      </trkpt>
      <trkpt lat="45.94914" lon="4.49313">
        <ele>607</ele>
        <time>2022-06-12T08:04:34Z</time>
      </trkpt>
      <trkpt lat="45.94897" lon="4.4929">
        <ele>610</ele>
        <time>2022-06-12T08:05:05Z</time>
      </trkpt>
      <trkpt lat="45.94895" lon="4.49269">
        <ele>610</ele>
        <time>2022-06-12T08:05:24Z</time>
      </trkpt>
      <trkpt lat="45.949" lon="4.49254">
        <ele>608</ele>
        <time>2022-06-12T08:05:40Z</time>
      </trkpt>
      <trkpt lat="45.94922" lon="4.49212">
        <ele>604</ele>
        <time>2022-06-12T08:06:29Z</time>
      </trkpt>
      <trkpt lat="45.94926" lon="4.49199">
        <ele>604</ele>
        <time>2022-06-12T08:06:42Z</time>
      </trkpt>
      <trkpt lat="45.94939" lon="4.49176">
        <ele>602</ele>
        <time>2022-06-12T08:07:09Z</time>
      </trkpt>
      <trkpt lat="45.94943" lon="4.49153">
        <ele>601</ele>
        <time>2022-06-12T08:07:31Z</time>
      </trkpt>
      <trkpt lat="45.94954" lon="4.49122">
        <ele>598</ele>
        <time>2022-06-12T08:08:04Z</time>
      </trkpt>
      <trkpt lat="45.94958" lon="4.49099">
        <ele>597</ele>
        <time>2022-06-12T08:08:26Z</time>
      </trkpt>
      <trkpt lat="45.94962" lon="4.49066">
        <ele>595</ele>
        <time>2022-06-12T08:08:57Z</time>
      </trkpt>
      <trkpt lat="45.94963" lon="4.49031">
        <ele>593</ele>
        <time>2022-06-12T08:09:29Z</time>
      </trkpt>
      <trkpt lat="45.94955" lon="4.48978">
        <ele>592</ele>
        <time>2022-06-12T08:10:20Z</time>
      </trkpt>
      <trkpt lat="45.94945" lon="4.48968">
        <ele>594</ele>
        <time>2022-06-12T08:10:36Z</time>
      </trkpt>
      <trkpt lat="45.94939" lon="4.48956">
        <ele>595</ele>
        <time>2022-06-12T08:10:50Z</time>
      </trkpt>
      <trkpt lat="45.94931" lon="4.48947">
        <ele>597</ele>
        <time>2022-06-12T08:11:03Z</time>
      </trkpt>
      <trkpt lat="45.94926" lon="4.48933">
        <ele>596</ele>
        <time>2022-06-12T08:11:18Z</time>
      </trkpt>
      <trkpt lat="45.94917" lon="4.48921">
        <ele>598</ele>
        <time>2022-06-12T08:11:34Z</time>
      </trkpt>
      <trkpt lat="45.9488" lon="4.48889">
        <ele>596</ele>
        <time>2022-06-12T08:12:32Z</time>
      </trkpt>
      <trkpt lat="45.9485" lon="4.48876">
        <ele>596</ele>
        <time>2022-06-12T08:13:13Z</time>
      </trkpt>
      <trkpt lat="45.94841" lon="4.48866">
        <ele>595</ele>
        <time>2022-06-12T08:13:29Z</time>
      </trkpt>
      <trkpt lat="45.94831" lon="4.48866">
        <ele>596</ele>
        <time>2022-06-12T08:13:42Z</time>
      </trkpt>
      <trkpt lat="45.94816" lon="4.48849">
        <ele>591</ele>
        <time>2022-06-12T08:14:07Z</time>
      </trkpt>
      <trkpt lat="45.94798" lon="4.48837">
        <ele>588</ele>
        <time>2022-06-12T08:14:34Z</time>
      </trkpt>
      <trkpt lat="45.94782" lon="4.48829">
        <ele>586</ele>
        <time>2022-06-12T08:14:57Z</time>
      </trkpt>
      <trkpt lat="45.94764" lon="4.48827">
        <ele>586</ele>
        <time>2022-06-12T08:15:21Z</time>
      </trkpt>
      <trkpt lat="45.94744" lon="4.48833">
        <ele>586</ele>
        <time>2022-06-12T08:15:48Z</time>
      </trkpt>
      <trkpt lat="45.94736" lon="4.48842">
        <ele>587</ele>
        <time>2022-06-12T08:16:01Z</time>
      </trkpt>
      <trkpt lat="45.94721" lon="4.48872">
        <ele>591</ele>
        <time>2022-06-12T08:16:36Z</time>
      </trkpt>
      <trkpt lat="45.94714" lon="4.48881">
        <ele>592</ele>
        <time>2022-06-12T08:16:48Z</time>
      </trkpt>
      <trkpt lat="45.94706" lon="4.48886">
        <ele>591</ele>
        <time>2022-06-12T08:17:00Z</time>
      </trkpt>
      <trkpt lat="45.947" lon="4.48903">
        <ele>595</ele>
        <time>2022-06-12T08:17:18Z</time>
      </trkpt>
      <trkpt lat="45.94688" lon="4.48908">
        <ele>593</ele>
        <time>2022-06-12T08:17:34Z</time>
      </trkpt>
      <trkpt lat="45.94665" lon="4.48911">
        <ele>590</ele>
        <time>2022-06-12T08:18:05Z</time>
      </trkpt>
      <trkpt lat="45.94646" lon="4.48917">
        <ele>592</ele>
        <time>2022-06-12T08:18:31Z</time>
      </trkpt>
      <trkpt lat="45.94635" lon="4.48915">
        <ele>592</ele>
        <time>2022-06-12T08:18:46Z</time>
      </trkpt>
      <trkpt lat="45.94625" lon="4.4892">
        <ele>595</ele>
        <time>2022-06-12T08:19:00Z</time>
      </trkpt>
      <trkpt lat="45.94614" lon="4.48921">
        <ele>596</ele>
        <time>2022-06-12T08:19:15Z</time>
      </trkpt>
      <trkpt lat="45.94604" lon="4.4892">
        <ele>596</ele>
        <time>2022-06-12T08:19:28Z</time>
      </trkpt>
      <trkpt lat="45.94588" lon="4.4891">
        <ele>593</ele>
        <time>2022-06-12T08:19:51Z</time>
      </trkpt>
      <trkpt lat="45.94567" lon="4.48907">
        <ele>591</ele>
        <time>2022-06-12T08:20:20Z</time>
      </trkpt>
      <trkpt lat="45.94546" lon="4.48908">
        <ele>590</ele>
        <time>2022-06-12T08:20:48Z</time>
      </trkpt>
      <trkpt lat="45.94536" lon="4.48915">
        <ele>591</ele>
        <time>2022-06-12T08:21:02Z</time>
      </trkpt>
      <trkpt lat="45.94528" lon="4.48917">
        <ele>591</ele>
        <time>2022-06-12T08:21:13Z</time>
      </trkpt>
      <trkpt lat="45.94519" lon="4.48925">
        <ele>593</ele>
        <time>2022-06-12T08:21:27Z</time>
      </trkpt>
      <trkpt lat="45.945" lon="4.48936">
        <ele>594</ele>
        <time>2022-06-12T08:21:55Z</time>
      </trkpt>
      <trkpt lat="45.94484" lon="4.48955">
        <ele>602</ele>
        <time>2022-06-12T08:22:22Z</time>
      </trkpt>
      <trkpt lat="45.94454" lon="4.48978">
        <ele>611</ele>
        <time>2022-06-12T08:23:08Z</time>
      </trkpt>
      <trkpt lat="45.94437" lon="4.4898">
        <ele>612</ele>
        <time>2022-06-12T08:23:31Z</time>
      </trkpt>
      <trkpt lat="45.94428" lon="4.48973">
        <ele>611</ele>
        <time>2022-06-12T08:23:44Z</time>
      </trkpt>
      <trkpt lat="45.94421" lon="4.48951">
        <ele>607</ele>
        <time>2022-06-12T08:24:07Z</time>
      </trkpt>
      <trkpt lat="45.944" lon="4.48919">
        <ele>607</ele>
        <time>2022-06-12T08:24:47Z</time>
      </trkpt>
      <trkpt lat="45.94384" lon="4.48886">
        <ele>607</ele>
        <time>2022-06-12T08:25:25Z</time>
      </trkpt>
      <trkpt lat="45.9437" lon="4.48838">
        <ele>605</ele>
        <time>2022-06-12T08:26:13Z</time>
      </trkpt>
      <trkpt lat="45.94363" lon="4.48829">
        <ele>606</ele>
        <time>2022-06-12T08:26:26Z</time>
      </trkpt>
      <trkpt lat="45.94356" lon="4.48812">
        <ele>606</ele>
        <time>2022-06-12T08:26:44Z</time>
      </trkpt>
      <trkpt lat="45.94344" lon="4.48768">
        <ele>605</ele>
        <time>2022-06-12T08:27:28Z</time>
      </trkpt>
      <trkpt lat="45.94335" lon="4.48757">
        <ele>607</ele>
        <time>2022-06-12T08:27:44Z</time>
      </trkpt>
      <trkpt lat="45.9433" lon="4.48741">
        <ele>605</ele>
        <time>2022-06-12T08:28:00Z</time>
      </trkpt>
      <trkpt lat="45.94321" lon="4.48731">
        <ele>605</ele>
        <time>2022-06-12T08:28:15Z</time>
      </trkpt>
      <trkpt lat="45.94289" lon="4.48711">
        <ele>606</ele>
        <time>2022-06-12T08:29:02Z</time>
      </trkpt>
      <trkpt lat="45.94262" lon="4.48711">
        <ele>611</ele>
        <time>2022-06-12T08:29:38Z</time>
      </trkpt>
      <trkpt lat="45.94253" lon="4.48709">
        <ele>612</ele>
        <time>2022-06-12T08:29:50Z</time>
      </trkpt>
      <trkpt lat="45.94242" lon="4.48701">
        <ele>609</ele>
        <time>2022-06-12T08:30:06Z</time>
      </trkpt>
      <trkpt lat="45.94237" lon="4.48705">
        <ele>610</ele>
        <time>2022-06-12T08:30:14Z</time>
      </trkpt>
      <trkpt lat="45.94229" lon="4.48704">
        <ele>610</ele>
        <time>2022-06-12T08:30:25Z</time>
      </trkpt>
      <trkpt lat="45.94218" lon="4.48698">
        <ele>608</ele>
        <time>2022-06-12T08:30:40Z</time>
      </trkpt>
      <trkpt lat="45.94195" lon="4.48702">
        <ele>608</ele>
        <time>2022-06-12T08:31:11Z</time>
      </trkpt>
      <trkpt lat="45.94163" lon="4.48702">
        <ele>606</ele>
        <time>2022-06-12T08:31:54Z</time>
      </trkpt>
      <trkpt lat="45.94147" lon="4.48717">
        <ele>605</ele>
        <time>2022-06-12T08:32:19Z</time>
      </trkpt>
      <trkpt lat="45.94136" lon="4.4874">
        <ele>608</ele>
        <time>2022-06-12T08:32:45Z</time>
      </trkpt>
      <trkpt lat="45.94096" lon="4.48807">
        <ele>605</ele>
        <time>2022-06-12T08:34:07Z</time>
      </trkpt>
      <trkpt lat="45.94074" lon="4.48857">
        <ele>601</ele>
        <time>2022-06-12T08:35:02Z</time>
      </trkpt>
      <trkpt lat="45.94074" lon="4.48873">
        <ele>601</ele>
        <time>2022-06-12T08:35:17Z</time>
      </trkpt>
      <trkpt lat="45.94078" lon="4.48886">
        <ele>602</ele>
        <time>2022-06-12T08:35:30Z</time>
      </trkpt>
      <trkpt lat="45.9408" lon="4.48909">
        <ele>602</ele>
        <time>2022-06-12T08:35:52Z</time>
      </trkpt>
      <trkpt lat="45.94087" lon="4.48919">
        <ele>604</ele>
        <time>2022-06-12T08:36:05Z</time>
      </trkpt>
      <trkpt lat="45.94098" lon="4.48928">
        <ele>607</ele>
        <time>2022-06-12T08:36:22Z</time>
      </trkpt>
      <trkpt lat="45.94115" lon="4.48954">
        <ele>611</ele>
        <time>2022-06-12T08:36:55Z</time>
      </trkpt>
      <trkpt lat="45.94124" lon="4.48963">
        <ele>614</ele>
        <time>2022-06-12T08:37:09Z</time>
      </trkpt>
      <trkpt lat="45.94126" lon="4.48993">
        <ele>613</ele>
        <time>2022-06-12T08:37:37Z</time>
      </trkpt>
      <trkpt lat="45.94124" lon="4.49005">
        <ele>612</ele>
        <time>2022-06-12T08:37:49Z</time>
      </trkpt>
      <trkpt lat="45.94129" lon="4.49039">
        <ele>614</ele>
        <time>2022-06-12T08:38:21Z</time>
      </trkpt>
      <trkpt lat="45.94126" lon="4.49065">
        <ele>614</ele>
        <time>2022-06-12T08:38:46Z</time>
      </trkpt>
      <trkpt lat="45.94122" lon="4.49076">
        <ele>612</ele>
        <time>2022-06-12T08:38:57Z</time>
      </trkpt>
      <trkpt lat="45.94104" lon="4.49102">
        <ele>609</ele>
        <time>2022-06-12T08:39:31Z</time>
      </trkpt>
      <trkpt lat="45.9409" lon="4.49115">
        <ele>606</ele>
        <time>2022-06-12T08:39:53Z</time>
      </trkpt>
      <trkpt lat="45.9408" lon="4.49133">
        <ele>605</ele>
        <time>2022-06-12T08:40:15Z</time>
      </trkpt>
      <trkpt lat="45.94079" lon="4.49143">
        <ele>606</ele>
        <time>2022-06-12T08:40:24Z</time>
      </trkpt>
      <trkpt lat="45.94059" lon="4.49176">
        <ele>605</ele>
        <time>2022-06-12T08:41:05Z</time>
      </trkpt>
      <trkpt lat="45.94055" lon="4.49204">
        <ele>608</ele>
        <time>2022-06-12T08:41:31Z</time>
      </trkpt>
      <trkpt lat="45.94042" lon="4.49242">
        <ele>610</ele>
        <time>2022-06-12T08:42:11Z</time>
      </trkpt>
      <trkpt lat="45.94037" lon="4.49268">
        <ele>613</ele>
        <time>2022-06-12T08:42:36Z</time>
      </trkpt>
      <trkpt lat="45.94002" lon="4.49334">
        <ele>617</ele>
        <time>2022-06-12T08:43:53Z</time>
      </trkpt>
      <trkpt lat="45.93996" lon="4.4934">
        <ele>616</ele>
        <time>2022-06-12T08:44:02Z</time>
      </trkpt>
      <trkpt lat="45.93974" lon="4.49375">
        <ele>616</ele>
        <time>2022-06-12T08:44:46Z</time>
      </trkpt>
      <trkpt lat="45.93959" lon="4.49388">
        <ele>616</ele>
        <time>2022-06-12T08:45:10Z</time>
      </trkpt>
      <trkpt lat="45.93954" lon="4.49401">
        <ele>617</ele>
        <time>2022-06-12T08:45:23Z</time>
      </trkpt>
      <trkpt lat="45.93945" lon="4.49409">
        <ele>617</ele>
        <time>2022-06-12T08:45:37Z</time>
      </trkpt>
      <trkpt lat="45.93912" lon="4.49462">
        <ele>618</ele>
        <time>2022-06-12T08:46:44Z</time>
      </trkpt>
      <trkpt lat="45.93906" lon="4.49467">
        <ele>617</ele>
        <time>2022-06-12T08:46:53Z</time>
      </trkpt>
      <trkpt lat="45.93897" lon="4.49489">
        <ele>618</ele>
        <time>2022-06-12T08:47:16Z</time>
      </trkpt>
      <trkpt lat="45.93873" lon="4.49522">
        <ele>616</ele>
        <time>2022-06-12T08:48:01Z</time>
      </trkpt>
      <trkpt lat="45.93861" lon="4.49549">
        <ele>615</ele>
        <time>2022-06-12T08:48:30Z</time>
      </trkpt>
      <trkpt lat="45.93844" lon="4.49571">
        <ele>614</ele>
        <time>2022-06-12T08:49:01Z</time>
      </trkpt>
      <trkpt lat="45.93807" lon="4.49632">
        <ele>610</ele>
        <time>2022-06-12T08:50:16Z</time>
      </trkpt>
      <trkpt lat="45.93797" lon="4.49643">
        <ele>609</ele>
        <time>2022-06-12T08:50:33Z</time>
      </trkpt>
      <trkpt lat="45.93787" lon="4.49669">
        <ele>609</ele>
        <time>2022-06-12T08:51:01Z</time>
      </trkpt>
      <trkpt lat="45.93788" lon="4.49685">
        <ele>608</ele>
        <time>2022-06-12T08:51:15Z</time>
      </trkpt>
      <trkpt lat="45.93785" lon="4.49701">
        <ele>608</ele>
        <time>2022-06-12T08:51:31Z</time>
      </trkpt>
      <trkpt lat="45.9377" lon="4.49748">
        <ele>607</ele>
        <time>2022-06-12T08:52:19Z</time>
      </trkpt>
      <trkpt lat="45.93754" lon="4.4978">
        <ele>604</ele>
        <time>2022-06-12T08:52:55Z</time>
      </trkpt>
      <trkpt lat="45.93748" lon="4.49801">
        <ele>602</ele>
        <time>2022-06-12T08:53:16Z</time>
      </trkpt>
      <trkpt lat="45.93732" lon="4.49822">
        <ele>601</ele>
        <time>2022-06-12T08:53:45Z</time>
      </trkpt>
      <trkpt lat="45.93717" lon="4.49851">
        <ele>599</ele>
        <time>2022-06-12T08:54:19Z</time>
      </trkpt>
      <trkpt lat="45.93712" lon="4.49863">
        <ele>599</ele>
        <time>2022-06-12T08:54:32Z</time>
      </trkpt>
      <trkpt lat="45.93712" lon="4.49874">
        <ele>598</ele>
        <time>2022-06-12T08:54:42Z</time>
      </trkpt>
      <trkpt lat="45.93681" lon="4.49953">
        <ele>593</ele>
        <time>2022-06-12T08:56:06Z</time>
      </trkpt>
      <trkpt lat="45.93668" lon="4.49973">
        <ele>592</ele>
        <time>2022-06-12T08:56:32Z</time>
      </trkpt>
      <trkpt lat="45.93662" lon="4.49989">
        <ele>591</ele>
        <time>2022-06-12T08:56:49Z</time>
      </trkpt>
      <trkpt lat="45.93654" lon="4.49999">
        <ele>591</ele>
        <time>2022-06-12T08:57:03Z</time>
      </trkpt>
      <trkpt lat="45.93633" lon="4.5005">
        <ele>584</ele>
        <time>2022-06-12T08:57:58Z</time>
      </trkpt>
      <trkpt lat="45.93606" lon="4.50086">
        <ele>583</ele>
        <time>2022-06-12T08:58:47Z</time>
      </trkpt>
      <trkpt lat="45.93601" lon="4.50099">
        <ele>580</ele>
        <time>2022-06-12T08:59:01Z</time>
      </trkpt>
      <trkpt lat="45.9359" lon="4.50112">
        <ele>580</ele>
        <time>2022-06-12T08:59:20Z</time>
      </trkpt>
      <trkpt lat="45.93573" lon="4.50145">
        <ele>575</ele>
        <time>2022-06-12T08:59:58Z</time>
      </trkpt>
      <trkpt lat="45.93563" lon="4.50152">
        <ele>576</ele>
        <time>2022-06-12T09:00:13Z</time>
      </trkpt>
      <trkpt lat="45.93539" lon="4.50182">
        <ele>574</ele>
        <time>2022-06-12T09:00:55Z</time>
      </trkpt>
      <trkpt lat="45.93537" lon="4.50194">
        <ele>571</ele>
        <time>2022-06-12T09:01:06Z</time>
      </trkpt>
      <trkpt lat="45.9353" lon="4.50202">
        <ele>571</ele>
        <time>2022-06-12T09:01:18Z</time>
      </trkpt>
      <trkpt lat="45.93519" lon="4.50231">
        <ele>567</ele>
        <time>2022-06-12T09:01:49Z</time>
      </trkpt>
      <trkpt lat="45.935" lon="4.50263">
        <ele>565</ele>
        <time>2022-06-12T09:02:28Z</time>
      </trkpt>
      <trkpt lat="45.93483" lon="4.50314">
        <ele>555</ele>
        <time>2022-06-12T09:03:21Z</time>
      </trkpt>
      <trkpt lat="45.93476" lon="4.50322">
        <ele>554</ele>
        <time>2022-06-12T09:03:33Z</time>
      </trkpt>
      <trkpt lat="45.93466" lon="4.50344">
        <ele>551</ele>
        <time>2022-06-12T09:03:57Z</time>
      </trkpt>
      <trkpt lat="45.93463" lon="4.50367">
        <ele>548</ele>
        <time>2022-06-12T09:04:19Z</time>
      </trkpt>
      <trkpt lat="45.93442" lon="4.50405">
        <ele>545</ele>
        <time>2022-06-12T09:05:04Z</time>
      </trkpt>
      <trkpt lat="45.93434" lon="4.50426">
        <ele>544</ele>
        <time>2022-06-12T09:05:26Z</time>
      </trkpt>
      <trkpt lat="45.93425" lon="4.50459">
        <ele>544</ele>
        <time>2022-06-12T09:05:59Z</time>
      </trkpt>
      <trkpt lat="45.93425" lon="4.50469">
        <ele>543</ele>
        <time>2022-06-12T09:06:08Z</time>
      </trkpt>
      <trkpt lat="45.93421" lon="4.50475">
        <ele>543</ele>
        <time>2022-06-12T09:06:16Z</time>
      </trkpt>
      <trkpt lat="45.93416" lon="4.50499">
        <ele>543</ele>
        <time>2022-06-12T09:06:39Z</time>
      </trkpt>
      <trkpt lat="45.9341" lon="4.50509">
        <ele>542</ele>
        <time>2022-06-12T09:06:51Z</time>
      </trkpt>
      <trkpt lat="45.93399" lon="4.50553">
        <ele>540</ele>
        <time>2022-06-12T09:07:35Z</time>
      </trkpt>
      <trkpt lat="45.93387" lon="4.5058">
        <ele>539</ele>
        <time>2022-06-12T09:08:04Z</time>
      </trkpt>
      <trkpt lat="45.93385" lon="4.50594">
        <ele>539</ele>
        <time>2022-06-12T09:08:18Z</time>
      </trkpt>
      <trkpt lat="45.93365" lon="4.50662">
        <ele>534</ele>
        <time>2022-06-12T09:09:26Z</time>
      </trkpt>
      <trkpt lat="45.93358" lon="4.50668">
        <ele>534</ele>
        <time>2022-06-12T09:09:37Z</time>
      </trkpt>
      <trkpt lat="45.93347" lon="4.50702">
        <ele>534</ele>
        <time>2022-06-12T09:10:12Z</time>
      </trkpt>
      <trkpt lat="45.9333" lon="4.50732">
        <ele>534</ele>
        <time>2022-06-12T09:10:48Z</time>
      </trkpt>
      <trkpt lat="45.93327" lon="4.50742">
        <ele>533</ele>
        <time>2022-06-12T09:10:58Z</time>
      </trkpt>
      <trkpt lat="45.93313" lon="4.50763">
        <ele>532</ele>
        <time>2022-06-12T09:11:25Z</time>
      </trkpt>
      <trkpt lat="45.93307" lon="4.50778">
        <ele>531</ele>
        <time>2022-06-12T09:11:41Z</time>
      </trkpt>
      <trkpt lat="45.93303" lon="4.50801">
        <ele>530</ele>
        <time>2022-06-12T09:12:03Z</time>
      </trkpt>
      <trkpt lat="45.93292" lon="4.50816">
        <ele>530</ele>
        <time>2022-06-12T09:12:23Z</time>
      </trkpt>
      <trkpt lat="45.93289" lon="4.50828">
        <ele>529</ele>
        <time>2022-06-12T09:12:35Z</time>
      </trkpt>
      <trkpt lat="45.93283" lon="4.50834">
        <ele>529</ele>
        <time>2022-06-12T09:12:45Z</time>
      </trkpt>
      <trkpt lat="45.93279" lon="4.50856">
        <ele>527</ele>
        <time>2022-06-12T09:13:06Z</time>
      </trkpt>
      <trkpt lat="45.9326" lon="4.50904">
        <ele>522</ele>
        <time>2022-06-12T09:13:57Z</time>
      </trkpt>
      <trkpt lat="45.93259" lon="4.50922">
        <ele>520</ele>
        <time>2022-06-12T09:14:14Z</time>
      </trkpt>
      <trkpt lat="45.93251" lon="4.5095">
        <ele>516</ele>
        <time>2022-06-12T09:14:42Z</time>
      </trkpt>
      <trkpt lat="45.93241" lon="4.50965">
        <ele>513</ele>
        <time>2022-06-12T09:15:01Z</time>
      </trkpt>
      <trkpt lat="45.93222" lon="4.51006">
        <ele>505</ele>
        <time>2022-06-12T09:15:47Z</time>
      </trkpt>
      <trkpt lat="45.93183" lon="4.5107">
        <ele>495</ele>
        <time>2022-06-12T09:17:06Z</time>
      </trkpt>
      <trkpt lat="45.93178" lon="4.51089">
        <ele>493</ele>
        <time>2022-06-12T09:17:25Z</time>
      </trkpt>
      <trkpt lat="45.93181" lon="4.51112">
        <ele>491</ele>
        <time>2022-06-12T09:17:47Z</time>
      </trkpt>
      <trkpt lat="45.93179" lon="4.51138">
        <ele>489</ele>
        <time>2022-06-12T09:18:11Z</time>
      </trkpt>
      <trkpt lat="45.93172" lon="4.51155">
        <ele>488</ele>
        <time>2022-06-12T09:18:29Z</time>
      </trkpt>
      <trkpt lat="45.93146" lon="4.51189">
        <ele>482</ele>
        <time>2022-06-12T09:19:16Z</time>
      </trkpt>
      <trkpt lat="45.93139" lon="4.51205">
        <ele>480</ele>
        <time>2022-06-12T09:19:34Z</time>
      </trkpt>
      <trkpt lat="45.93133" lon="4.51228">
        <ele>478</ele>
        <time>2022-06-12T09:19:56Z</time>
      </trkpt>
      <trkpt lat="45.93119" lon="4.51255">
        <ele>475</ele>
        <time>2022-06-12T09:20:28Z</time>
      </trkpt>
      <trkpt lat="45.93103" lon="4.51271">
        <ele>473</ele>
        <time>2022-06-12T09:20:54Z</time>
      </trkpt>
      <trkpt lat="45.93151" lon="4.51276">
        <ele>474</ele>
        <time>2022-06-12T09:21:58Z</time>
      </trkpt>
      <trkpt lat="45.93162" lon="4.51274">
        <ele>474</ele>
        <time>2022-06-12T09:22:13Z</time>
      </trkpt>
      <trkpt lat="45.93194" lon="4.51278">
        <ele>473</ele>
        <time>2022-06-12T09:22:56Z</time>
      </trkpt>
      <trkpt lat="45.93227" lon="4.51264">
        <ele>473</ele>
        <time>2022-06-12T09:23:42Z</time>
      </trkpt>
      <trkpt lat="45.93237" lon="4.51257">
        <ele>473</ele>
        <time>2022-06-12T09:23:56Z</time>
      </trkpt>
      <trkpt lat="45.93262" lon="4.5123">
        <ele>473</ele>
        <time>2022-06-12T09:24:38Z</time>
      </trkpt>
      <trkpt lat="45.9328" lon="4.51204">
        <ele>472</ele>
        <time>2022-06-12T09:25:12Z</time>
      </trkpt>
      <trkpt lat="45.93292" lon="4.51192">
        <ele>471</ele>
        <time>2022-06-12T09:25:32Z</time>
      </trkpt>
      <trkpt lat="45.93318" lon="4.51124">
        <ele>473</ele>
        <time>2022-06-12T09:26:44Z</time>
      </trkpt>
      <trkpt lat="45.93341" lon="4.51118">
        <ele>471</ele>
        <time>2022-06-12T09:27:15Z</time>
      </trkpt>
      <trkpt lat="45.9337" lon="4.51131">
        <ele>468</ele>
        <time>2022-06-12T09:27:55Z</time>
      </trkpt>
      <trkpt lat="45.93382" lon="4.51141">
        <ele>467</ele>
        <time>2022-06-12T09:28:14Z</time>
      </trkpt>
      <trkpt lat="45.93404" lon="4.51135">
        <ele>466</ele>
        <time>2022-06-12T09:28:44Z</time>
      </trkpt>
      <trkpt lat="45.93416" lon="4.51138">
        <ele>466</ele>
        <time>2022-06-12T09:29:00Z</time>
      </trkpt>
      <trkpt lat="45.93425" lon="4.5113">
        <ele>466</ele>
        <time>2022-06-12T09:29:14Z</time>
      </trkpt>
      <trkpt lat="45.93437" lon="4.51112">
        <ele>467</ele>
        <time>2022-06-12T09:29:37Z</time>
      </trkpt>
      <trkpt lat="45.93451" lon="4.51105">
        <ele>467</ele>
        <time>2022-06-12T09:29:57Z</time>
      </trkpt>
      <trkpt lat="45.93478" lon="4.51111">
        <ele>465</ele>
        <time>2022-06-12T09:30:34Z</time>
      </trkpt>
      <trkpt lat="45.93488" lon="4.51118">
        <ele>463</ele>
        <time>2022-06-12T09:30:48Z</time>
      </trkpt>
      <trkpt lat="45.93497" lon="4.51121">
        <ele>463</ele>
        <time>2022-06-12T09:31:01Z</time>
      </trkpt>
      <trkpt lat="45.93503" lon="4.51129">
        <ele>462</ele>
        <time>2022-06-12T09:31:12Z</time>
      </trkpt>
      <trkpt lat="45.93512" lon="4.51128">
        <ele>462</ele>
        <time>2022-06-12T09:31:24Z</time>
      </trkpt>
      <trkpt lat="45.93545" lon="4.51112">
        <ele>462</ele>
        <time>2022-06-12T09:32:10Z</time>
      </trkpt>
      <trkpt lat="45.93569" lon="4.5109">
        <ele>461</ele>
        <time>2022-06-12T09:32:48Z</time>
      </trkpt>
      <trkpt lat="45.93592" lon="4.5109">
        <ele>462</ele>
        <time>2022-06-12T09:33:19Z</time>
      </trkpt>
      <trkpt lat="45.93609" lon="4.51108">
        <ele>465</ele>
        <time>2022-06-12T09:33:47Z</time>
      </trkpt>
      <trkpt lat="45.93616" lon="4.51121">
        <ele>467</ele>
        <time>2022-06-12T09:34:02Z</time>
      </trkpt>
      <trkpt lat="45.93613" lon="4.51134">
        <ele>467</ele>
        <time>2022-06-12T09:34:15Z</time>
      </trkpt>
      <trkpt lat="45.93612" lon="4.51182">
        <ele>469</ele>
        <time>2022-06-12T09:35:00Z</time>
      </trkpt>
      <trkpt lat="45.93616" lon="4.51223">
        <ele>471</ele>
        <time>2022-06-12T09:35:38Z</time>
      </trkpt>
      <trkpt lat="45.93614" lon="4.51238">
        <ele>471</ele>
        <time>2022-06-12T09:35:52Z</time>
      </trkpt>
      <trkpt lat="45.93616" lon="4.51275">
        <ele>472</ele>
        <time>2022-06-12T09:36:27Z</time>
      </trkpt>
      <trkpt lat="45.93614" lon="4.51287">
        <ele>472</ele>
        <time>2022-06-12T09:36:38Z</time>
      </trkpt>
      <trkpt lat="45.93619" lon="4.51299">
        <ele>473</ele>
        <time>2022-06-12T09:36:51Z</time>
      </trkpt>
      <trkpt lat="45.93616" lon="4.5133">
        <ele>473</ele>
        <time>2022-06-12T09:37:20Z</time>
      </trkpt>
      <trkpt lat="45.93616" lon="4.51362">
        <ele>474</ele>
        <time>2022-06-12T09:37:50Z</time>
      </trkpt>
      <trkpt lat="45.93619" lon="4.51372">
        <ele>475</ele>
        <time>2022-06-12T09:38:00Z</time>
      </trkpt>
      <trkpt lat="45.93618" lon="4.5139">
        <ele>476</ele>
        <time>2022-06-12T09:38:17Z</time>
      </trkpt>
      <trkpt lat="45.93622" lon="4.51421">
        <ele>478</ele>
        <time>2022-06-12T09:38:46Z</time>
      </trkpt>
      <trkpt lat="45.93622" lon="4.5153">
        <ele>477</ele>
        <time>2022-06-12T09:40:27Z</time>
      </trkpt>
      <trkpt lat="45.93629" lon="4.51551">
        <ele>477</ele>
        <time>2022-06-12T09:40:49Z</time>
      </trkpt>
      <trkpt lat="45.93641" lon="4.51573">
        <ele>478</ele>
        <time>2022-06-12T09:41:15Z</time>
      </trkpt>
      <trkpt lat="45.93686" lon="4.51605">
        <ele>481</ele>
        <time>2022-06-12T09:42:22Z</time>
      </trkpt>
      <trkpt lat="45.93698" lon="4.51609">
        <ele>481</ele>
        <time>2022-06-12T09:42:38Z</time>
      </trkpt>
      <trkpt lat="45.93696" lon="4.51623">
        <ele>480</ele>
        <time>2022-06-12T09:42:51Z</time>
      </trkpt>
      <trkpt lat="45.93691" lon="4.51634">
        <ele>480</ele>
        <time>2022-06-12T09:43:03Z</time>
      </trkpt>
      <trkpt lat="45.93678" lon="4.51684">
        <ele>478</ele>
        <time>2022-06-12T09:43:53Z</time>
      </trkpt>
      <trkpt lat="45.93672" lon="4.51696">
        <ele>478</ele>
        <time>2022-06-12T09:44:07Z</time>
      </trkpt>
      <trkpt lat="45.93654" lon="4.51802">
        <ele>475</ele>
        <time>2022-06-12T09:45:48Z</time>
      </trkpt>
      <trkpt lat="45.9365" lon="4.51842">
        <ele>474</ele>
        <time>2022-06-12T09:46:25Z</time>
      </trkpt>
      <trkpt lat="45.93636" lon="4.51892">
        <ele>471</ele>
        <time>2022-06-12T09:47:16Z</time>
      </trkpt>
      <trkpt lat="45.93631" lon="4.51919">
        <ele>470</ele>
        <time>2022-06-12T09:47:41Z</time>
      </trkpt>
      <trkpt lat="45.93621" lon="4.51943">
        <ele>468</ele>
        <time>2022-06-12T09:48:07Z</time>
      </trkpt>
      <trkpt lat="45.93616" lon="4.5197">
        <ele>466</ele>
        <time>2022-06-12T09:48:33Z</time>
      </trkpt>
      <trkpt lat="45.93606" lon="4.51991">
        <ele>465</ele>
        <time>2022-06-12T09:48:57Z</time>
      </trkpt>
      <trkpt lat="45.93597" lon="4.51996">
        <ele>465</ele>
        <time>2022-06-12T09:49:10Z</time>
      </trkpt>
      <trkpt lat="45.93589" lon="4.51988">
        <ele>466</ele>
        <time>2022-06-12T09:49:23Z</time>
      </trkpt>
      <trkpt lat="45.9358" lon="4.51994">
        <ele>465</ele>
        <time>2022-06-12T09:49:36Z</time>
      </trkpt>
      <trkpt lat="45.9359" lon="4.5199">
        <ele>465</ele>
        <time>2022-06-12T09:49:50Z</time>
      </trkpt>
      <trkpt lat="45.93597" lon="4.52015">
        <ele>463</ele>
        <time>2022-06-12T09:50:15Z</time>
      </trkpt>
      <trkpt lat="45.93612" lon="4.52048">
        <ele>459</ele>
        <time>2022-06-12T09:50:52Z</time>
      </trkpt>
      <trkpt lat="45.93651" lon="4.52107">
        <ele>450</ele>
        <time>2022-06-12T09:52:07Z</time>
      </trkpt>
      <trkpt lat="45.93652" lon="4.5212">
        <ele>449</ele>
        <time>2022-06-12T09:52:19Z</time>
      </trkpt>
      <trkpt lat="45.93649" lon="4.52133">
        <ele>448</ele>
        <time>2022-06-12T09:52:32Z</time>
      </trkpt>
      <trkpt lat="45.93653" lon="4.52145">
        <ele>447</ele>
        <time>2022-06-12T09:52:44Z</time>
      </trkpt>
      <trkpt lat="45.93645" lon="4.52196">
        <ele>442</ele>
        <time>2022-06-12T09:53:33Z</time>
      </trkpt>
      <trkpt lat="45.93654" lon="4.52261">
        <ele>436</ele>
        <time>2022-06-12T09:54:34Z</time>
      </trkpt>
      <trkpt lat="45.93658" lon="4.52274">
        <ele>434</ele>
        <time>2022-06-12T09:54:47Z</time>
      </trkpt>
      <trkpt lat="45.93659" lon="4.52355">
        <ele>428</ele>
        <time>2022-06-12T09:56:03Z</time>
      </trkpt>
      <trkpt lat="45.93662" lon="4.52381">
        <ele>427</ele>
        <time>2022-06-12T09:56:27Z</time>
      </trkpt>
      <trkpt lat="45.93658" lon="4.5246">
        <ele>424</ele>
        <time>2022-06-12T09:57:41Z</time>
      </trkpt>
      <trkpt lat="45.9366" lon="4.52487">
        <ele>423</ele>
        <time>2022-06-12T09:58:06Z</time>
      </trkpt>
      <trkpt lat="45.93657" lon="4.52514">
        <ele>423</ele>
        <time>2022-06-12T09:58:31Z</time>
      </trkpt>
      <trkpt lat="45.93638" lon="4.52577">
        <ele>422</ele>
        <time>2022-06-12T09:59:35Z</time>
      </trkpt>
      <trkpt lat="45.93626" lon="4.52627">
        <ele>421</ele>
        <time>2022-06-12T10:00:24Z</time>
      </trkpt>
      <trkpt lat="45.93586" lon="4.5275">
        <ele>420</ele>
        <time>2022-06-12T10:02:30Z</time>
      </trkpt>
      <trkpt lat="45.93566" lon="4.5287">
        <ele>414</ele>
        <time>2022-06-12T10:04:25Z</time>
      </trkpt>
      <trkpt lat="45.9356" lon="4.52922">
        <ele>412</ele>
        <time>2022-06-12T10:05:13Z</time>
      </trkpt>
      <trkpt lat="45.93564" lon="4.52934">
        <ele>412</ele>
        <time>2022-06-12T10:05:26Z</time>
      </trkpt>
      <trkpt lat="45.93557" lon="4.52943">
        <ele>412</ele>
        <time>2022-06-12T10:05:38Z</time>
      </trkpt>
      <trkpt lat="45.93548" lon="4.52996">
        <ele>412</ele>
        <time>2022-06-12T10:06:29Z</time>
      </trkpt>
      <trkpt lat="45.9353" lon="4.53046">
        <ele>411</ele>
        <time>2022-06-12T10:07:21Z</time>
      </trkpt>
      <trkpt lat="45.93496" lon="4.53158">
        <ele>415</ele>
        <time>2022-06-12T10:09:15Z</time>
      </trkpt>
      <trkpt lat="45.93487" lon="4.53197">
        <ele>415</ele>
        <time>2022-06-12T10:09:53Z</time>
      </trkpt>
      <trkpt lat="45.93468" lon="4.53243">
        <ele>415</ele>
        <time>2022-06-12T10:10:42Z</time>
      </trkpt>
      <trkpt lat="45.93457" lon="4.5328">
        <ele>415</ele>
        <time>2022-06-12T10:11:20Z</time>
      </trkpt>
      <trkpt lat="45.93446" lon="4.53303">
        <ele>415</ele>
        <time>2022-06-12T10:11:46Z</time>
      </trkpt>
      <trkpt lat="45.93441" lon="4.53329">
        <ele>416</ele>
        <time>2022-06-12T10:12:11Z</time>
      </trkpt>
      <trkpt lat="45.93422" lon="4.53378">
        <ele>416</ele>
        <time>2022-06-12T10:13:03Z</time>
      </trkpt>
      <trkpt lat="45.93413" lon="4.53416">
        <ele>416</ele>
        <time>2022-06-12T10:13:40Z</time>
      </trkpt>
      <trkpt lat="45.93401" lon="4.53437">
        <ele>414</ele>
        <time>2022-06-12T10:14:05Z</time>
      </trkpt>
      <trkpt lat="45.9338" lon="4.53485">
        <ele>412</ele>
        <time>2022-06-12T10:14:58Z</time>
      </trkpt>
      <trkpt lat="45.93377" lon="4.53498">
        <ele>412</ele>
        <time>2022-06-12T10:15:11Z</time>
      </trkpt>
      <trkpt lat="45.93365" lon="4.53519">
        <ele>410</ele>
        <time>2022-06-12T10:15:36Z</time>
      </trkpt>
      <trkpt lat="45.93357" lon="4.53545">
        <ele>409</ele>
        <time>2022-06-12T10:16:02Z</time>
      </trkpt>
      <trkpt lat="45.93346" lon="4.53567">
        <ele>408</ele>
        <time>2022-06-12T10:16:27Z</time>
      </trkpt>
      <trkpt lat="45.93333" lon="4.53586">
        <ele>407</ele>
        <time>2022-06-12T10:16:52Z</time>
      </trkpt>
      <trkpt lat="45.933" lon="4.53654">
        <ele>403</ele>
        <time>2022-06-12T10:18:09Z</time>
      </trkpt>
      <trkpt lat="45.93307" lon="4.53663">
        <ele>403</ele>
        <time>2022-06-12T10:18:22Z</time>
      </trkpt>
      <trkpt lat="45.93317" lon="4.53663">
        <ele>403</ele>
        <time>2022-06-12T10:18:35Z</time>
      </trkpt>
      <trkpt lat="45.93335" lon="4.53668">
        <ele>403</ele>
        <time>2022-06-12T10:18:59Z</time>
      </trkpt>
      <trkpt lat="45.93353" lon="4.5366">
        <ele>403</ele>
        <time>2022-06-12T10:19:25Z</time>
      </trkpt>
      <trkpt lat="45.93376" lon="4.53636">
        <ele>404</ele>
        <time>2022-06-12T10:20:03Z</time>
      </trkpt>
      <trkpt lat="45.93385" lon="4.53631">
        <ele>404</ele>
        <time>2022-06-12T10:20:15Z</time>
      </trkpt>
      <trkpt lat="45.93393" lon="4.53634">
        <ele>404</ele>
        <time>2022-06-12T10:20:26Z</time>
      </trkpt>
      <trkpt lat="45.93401" lon="4.53642">
        <ele>403</ele>
        <time>2022-06-12T10:20:39Z</time>
      </trkpt>
      <trkpt lat="45.9341" lon="4.53642">
        <ele>402</ele>
        <time>2022-06-12T10:20:51Z</time>
      </trkpt>
      <trkpt lat="45.93428" lon="4.53651">
        <ele>400</ele>
        <time>2022-06-12T10:21:17Z</time>
      </trkpt>
      <trkpt lat="45.93465" lon="4.53661">
        <ele>396</ele>
        <time>2022-06-12T10:22:07Z</time>
      </trkpt>
      <trkpt lat="45.93492" lon="4.53655">
        <ele>395</ele>
        <time>2022-06-12T10:22:44Z</time>
      </trkpt>
      <trkpt lat="45.93511" lon="4.53657">
        <ele>393</ele>
        <time>2022-06-12T10:23:09Z</time>
      </trkpt>
      <trkpt lat="45.93539" lon="4.53653">
        <ele>391</ele>
        <time>2022-06-12T10:23:47Z</time>
      </trkpt>
      <trkpt lat="45.93576" lon="4.53654">
        <ele>387</ele>
        <time>2022-06-12T10:24:36Z</time>
      </trkpt>
      <trkpt lat="45.93595" lon="4.53651">
        <ele>385</ele>
        <time>2022-06-12T10:25:01Z</time>
      </trkpt>
      <trkpt lat="45.93605" lon="4.53654">
        <ele>383</ele>
        <time>2022-06-12T10:25:15Z</time>
      </trkpt>
      <trkpt lat="45.93613" lon="4.53648">
        <ele>382</ele>
        <time>2022-06-12T10:25:27Z</time>
      </trkpt>
      <trkpt lat="45.93623" lon="4.53648">
        <ele>381</ele>
        <time>2022-06-12T10:25:40Z</time>
      </trkpt>
      <trkpt lat="45.93632" lon="4.53644">
        <ele>380</ele>
        <time>2022-06-12T10:25:53Z</time>
      </trkpt>
      <trkpt lat="45.93647" lon="4.53628">
        <ele>379</ele>
        <time>2022-06-12T10:26:18Z</time>
      </trkpt>
      <trkpt lat="45.93663" lon="4.53617">
        <ele>377</ele>
        <time>2022-06-12T10:26:42Z</time>
      </trkpt>
      <trkpt lat="45.93679" lon="4.536">
        <ele>375</ele>
        <time>2022-06-12T10:27:08Z</time>
      </trkpt>
      <trkpt lat="45.93699" lon="4.53571">
        <ele>372</ele>
        <time>2022-06-12T10:27:46Z</time>
      </trkpt>
      <trkpt lat="45.9372" lon="4.5351">
        <ele>370</ele>
        <time>2022-06-12T10:28:49Z</time>
      </trkpt>
      <trkpt lat="45.93725" lon="4.53471">
        <ele>368</ele>
        <time>2022-06-12T10:29:26Z</time>
      </trkpt>
      <trkpt lat="45.93722" lon="4.53431">
        <ele>367</ele>
        <time>2022-06-12T10:30:03Z</time>
      </trkpt>
      <trkpt lat="45.93716" lon="4.53421">
        <ele>368</ele>
        <time>2022-06-12T10:30:16Z</time>
      </trkpt>
      <trkpt lat="45.93721" lon="4.53382">
        <ele>366</ele>
        <time>2022-06-12T10:30:52Z</time>
      </trkpt>
      <trkpt lat="45.93716" lon="4.5337">
        <ele>367</ele>
        <time>2022-06-12T10:31:05Z</time>
      </trkpt>
      <trkpt lat="45.9371" lon="4.53331">
        <ele>369</ele>
        <time>2022-06-12T10:31:42Z</time>
      </trkpt>
      <trkpt lat="45.93722" lon="4.5328">
        <ele>367</ele>
        <time>2022-06-12T10:32:32Z</time>
      </trkpt>
      <trkpt lat="45.93727" lon="4.53269">
        <ele>366</ele>
        <time>2022-06-12T10:32:45Z</time>
      </trkpt>
      <trkpt lat="45.93729" lon="4.53283">
        <ele>364</ele>
        <time>2022-06-12T10:32:58Z</time>
      </trkpt>
      <trkpt lat="45.93724" lon="4.53294">
        <ele>366</ele>
        <time>2022-06-12T10:33:10Z</time>
      </trkpt>
      <trkpt lat="45.93724" lon="4.53321">
        <ele>364</ele>
        <time>2022-06-12T10:33:35Z</time>
      </trkpt>
      <trkpt lat="45.93727" lon="4.53333">
        <ele>363</ele>
        <time>2022-06-12T10:33:47Z</time>
      </trkpt>
      <trkpt lat="45.93735" lon="4.53326">
        <ele>360</ele>
        <time>2022-06-12T10:33:59Z</time>
      </trkpt>
      <trkpt lat="45.93741" lon="4.53315">
        <ele>359</ele>
        <time>2022-06-12T10:34:12Z</time>
      </trkpt>
      <trkpt lat="45.93757" lon="4.533">
        <ele>354</ele>
        <time>2022-06-12T10:34:38Z</time>
      </trkpt>
      <trkpt lat="45.93763" lon="4.53291">
        <ele>353</ele>
        <time>2022-06-12T10:34:50Z</time>
      </trkpt>
      <trkpt lat="45.9378" lon="4.53257">
        <ele>349</ele>
        <time>2022-06-12T10:35:28Z</time>
      </trkpt>
      <trkpt lat="45.93789" lon="4.53232">
        <ele>347</ele>
        <time>2022-06-12T10:35:55Z</time>
      </trkpt>
      <trkpt lat="45.93792" lon="4.5322">
        <ele>346</ele>
        <time>2022-06-12T10:36:06Z</time>
      </trkpt>
      <trkpt lat="45.93795" lon="4.53155">
        <ele>347</ele>
        <time>2022-06-12T10:37:07Z</time>
      </trkpt>
      <trkpt lat="45.93811" lon="4.53076">
        <ele>346</ele>
        <time>2022-06-12T10:38:23Z</time>
      </trkpt>
      <trkpt lat="45.93816" lon="4.53065">
        <ele>346</ele>
        <time>2022-06-12T10:38:35Z</time>
      </trkpt>
      <trkpt lat="45.9383" lon="4.53044">
        <ele>346</ele>
        <time>2022-06-12T10:39:02Z</time>
      </trkpt>
      <trkpt lat="45.93857" lon="4.53033">
        <ele>343</ele>
        <time>2022-06-12T10:39:40Z</time>
      </trkpt>
      <trkpt lat="45.93866" lon="4.53032">
        <ele>342</ele>
        <time>2022-06-12T10:39:52Z</time>
      </trkpt>
      <trkpt lat="45.93871" lon="4.53022">
        <ele>343</ele>
        <time>2022-06-12T10:40:03Z</time>
      </trkpt>
      <trkpt lat="45.93882" lon="4.53021">
        <ele>341</ele>
        <time>2022-06-12T10:40:18Z</time>
      </trkpt>
      <trkpt lat="45.9391" lon="4.53007">
        <ele>338</ele>
        <time>2022-06-12T10:40:58Z</time>
      </trkpt>
      <trkpt lat="45.93918" lon="4.53001">
        <ele>338</ele>
        <time>2022-06-12T10:41:10Z</time>
      </trkpt>
      <trkpt lat="45.93939" lon="4.52975">
        <ele>337</ele>
        <time>2022-06-12T10:41:47Z</time>
      </trkpt>
      <trkpt lat="45.93982" lon="4.52944">
        <ele>332</ele>
        <time>2022-06-12T10:42:51Z</time>
      </trkpt>
      <trkpt lat="45.94006" lon="4.52919">
        <ele>330</ele>
        <time>2022-06-12T10:43:30Z</time>
      </trkpt>
      <trkpt lat="45.94017" lon="4.52897">
        <ele>329</ele>
        <time>2022-06-12T10:43:55Z</time>
      </trkpt>
      <trkpt lat="45.94025" lon="4.52871">
        <ele>328</ele>
        <time>2022-06-12T10:44:22Z</time>
      </trkpt>
      <trkpt lat="45.94036" lon="4.52851">
        <ele>326</ele>
        <time>2022-06-12T10:44:45Z</time>
      </trkpt>
      <trkpt lat="45.94055" lon="4.52843">
        <ele>323</ele>
        <time>2022-06-12T10:45:12Z</time>
      </trkpt>
      <trkpt lat="45.94073" lon="4.52845">
        <ele>319</ele>
        <time>2022-06-12T10:45:36Z</time>
      </trkpt>
      <trkpt lat="45.94092" lon="4.52852">
        <ele>316</ele>
        <time>2022-06-12T10:46:02Z</time>
      </trkpt>
      <trkpt lat="45.94115" lon="4.52794">
        <ele>311</ele>
        <time>2022-06-12T10:47:04Z</time>
      </trkpt>
      <trkpt lat="45.94122" lon="4.52784">
        <ele>310</ele>
        <time>2022-06-12T10:47:17Z</time>
      </trkpt>
      <trkpt lat="45.94131" lon="4.52778">
        <ele>309</ele>
        <time>2022-06-12T10:47:31Z</time>
      </trkpt>
      <trkpt lat="45.94156" lon="4.52795">
        <ele>306</ele>
        <time>2022-06-12T10:48:07Z</time>
      </trkpt>
      <trkpt lat="45.9416" lon="4.52783">
        <ele>305</ele>
        <time>2022-06-12T10:48:20Z</time>
      </trkpt>
      <trkpt lat="45.94163" lon="4.52742">
        <ele>305</ele>
        <time>2022-06-12T10:48:58Z</time>
      </trkpt>
      <trkpt lat="45.94177" lon="4.52722">
        <ele>305</ele>
        <time>2022-06-12T10:49:24Z</time>
      </trkpt>
      <trkpt lat="45.94212" lon="4.52697">
        <ele>304</ele>
        <time>2022-06-12T10:50:17Z</time>
      </trkpt>
      <trkpt lat="45.94227" lon="4.52681">
        <ele>303</ele>
        <time>2022-06-12T10:50:41Z</time>
      </trkpt>
      <trkpt lat="45.94233" lon="4.5267">
        <ele>303</ele>
        <time>2022-06-12T10:50:54Z</time>
      </trkpt>
      <trkpt lat="45.94256" lon="4.52644">
        <ele>303</ele>
        <time>2022-06-12T10:51:33Z</time>
      </trkpt>
      <trkpt lat="45.94264" lon="4.52638">
        <ele>303</ele>
        <time>2022-06-12T10:51:46Z</time>
      </trkpt>
      <trkpt lat="45.94273" lon="4.52639">
        <ele>304</ele>
        <time>2022-06-12T10:51:58Z</time>
      </trkpt>
      <trkpt lat="45.94281" lon="4.52645">
        <ele>303</ele>
        <time>2022-06-12T10:52:10Z</time>
      </trkpt>
      <trkpt lat="45.94283" lon="4.52658">
        <ele>303</ele>
        <time>2022-06-12T10:52:22Z</time>
      </trkpt>
      <trkpt lat="45.94282" lon="4.52685">
        <ele>305</ele>
        <time>2022-06-12T10:52:47Z</time>
      </trkpt>
      <trkpt lat="45.94274" lon="4.52709">
        <ele>305</ele>
        <time>2022-06-12T10:53:12Z</time>
      </trkpt>
      <trkpt lat="45.94268" lon="4.52777">
        <ele>307</ele>
        <time>2022-06-12T10:54:15Z</time>
      </trkpt>
      <trkpt lat="45.94269" lon="4.5279">
        <ele>308</ele>
        <time>2022-06-12T10:54:27Z</time>
      </trkpt>
      <trkpt lat="45.94276" lon="4.52816">
        <ele>312</ele>
        <time>2022-06-12T10:54:53Z</time>
      </trkpt>
      <trkpt lat="45.94277" lon="4.52871">
        <ele>313</ele>
        <time>2022-06-12T10:55:44Z</time>
      </trkpt>
      <trkpt lat="45.94289" lon="4.52907">
        <ele>318</ele>
        <time>2022-06-12T10:56:21Z</time>
      </trkpt>
      <trkpt lat="45.94286" lon="4.52854">
        <ele>317</ele>
        <time>2022-06-12T10:57:11Z</time>
      </trkpt>
      <trkpt lat="45.94288" lon="4.52841">
        <ele>318</ele>
        <time>2022-06-12T10:57:23Z</time>
      </trkpt>
      <trkpt lat="45.94297" lon="4.52852">
        <ele>321</ele>
        <time>2022-06-12T10:57:39Z</time>
      </trkpt>
      <trkpt lat="45.94309" lon="4.52899">
        <ele>327</ele>
        <time>2022-06-12T10:58:25Z</time>
      </trkpt>
      <trkpt lat="45.94315" lon="4.52913">
        <ele>329</ele>
        <time>2022-06-12T10:58:41Z</time>
      </trkpt>
      <trkpt lat="45.94335" lon="4.52949">
        <ele>334</ele>
        <time>2022-06-12T10:59:23Z</time>
      </trkpt>
      <trkpt lat="45.94341" lon="4.52951">
        <ele>335</ele>
        <time>2022-06-12T10:59:32Z</time>
      </trkpt>
      <trkpt lat="45.94347" lon="4.52958">
        <ele>336</ele>
        <time>2022-06-12T10:59:42Z</time>
      </trkpt>
      <trkpt lat="45.94358" lon="4.52942">
        <ele>340</ele>
        <time>2022-06-12T11:00:03Z</time>
      </trkpt>
      <trkpt lat="45.94364" lon="4.52951">
        <ele>341</ele>
        <time>2022-06-12T11:00:14Z</time>
      </trkpt>
      <trkpt lat="45.94379" lon="4.52945">
        <ele>346</ele>
        <time>2022-06-12T11:00:35Z</time>
      </trkpt>
      <trkpt lat="45.94384" lon="4.52949">
        <ele>346</ele>
        <time>2022-06-12T11:00:43Z</time>
      </trkpt>
      <trkpt lat="45.94386" lon="4.52963">
        <ele>345</ele>
        <time>2022-06-12T11:00:56Z</time>
      </trkpt>
      <trkpt lat="45.94397" lon="4.52969">
        <ele>347</ele>
        <time>2022-06-12T11:01:12Z</time>
      </trkpt>
      <trkpt lat="45.94408" lon="4.5298">
        <ele>348</ele>
        <time>2022-06-12T11:01:30Z</time>
      </trkpt>
      <trkpt lat="45.94421" lon="4.52965">
        <ele>351</ele>
        <time>2022-06-12T11:01:52Z</time>
      </trkpt>
      <trkpt lat="45.94428" lon="4.52951">
        <ele>352</ele>
        <time>2022-06-12T11:02:08Z</time>
      </trkpt>
      <trkpt lat="45.94433" lon="4.52918">
        <ele>356</ele>
        <time>2022-06-12T11:02:39Z</time>
      </trkpt>
      <trkpt lat="45.94431" lon="4.52905">
        <ele>356</ele>
        <time>2022-06-12T11:02:52Z</time>
      </trkpt>
      <trkpt lat="45.94436" lon="4.52896">
        <ele>355</ele>
        <time>2022-06-12T11:03:02Z</time>
      </trkpt>
      <trkpt lat="45.94442" lon="4.5289">
        <ele>354</ele>
        <time>2022-06-12T11:03:12Z</time>
      </trkpt>
      <trkpt lat="45.94459" lon="4.52891">
        <ele>351</ele>
        <time>2022-06-12T11:03:35Z</time>
      </trkpt>
      <trkpt lat="45.94469" lon="4.52879">
        <ele>350</ele>
        <time>2022-06-12T11:03:52Z</time>
      </trkpt>
      <trkpt lat="45.94471" lon="4.52866">
        <ele>351</ele>
        <time>2022-06-12T11:04:04Z</time>
      </trkpt>
      <trkpt lat="45.94486" lon="4.5283">
        <ele>353</ele>
        <time>2022-06-12T11:04:43Z</time>
      </trkpt>
      <trkpt lat="45.94534" lon="4.52757">
        <ele>349</ele>
        <time>2022-06-12T11:06:17Z</time>
      </trkpt>
      <trkpt lat="45.94541" lon="4.52748">
        <ele>349</ele>
        <time>2022-06-12T11:06:29Z</time>
      </trkpt>
      <trkpt lat="45.9455" lon="4.52743">
        <ele>349</ele>
        <time>2022-06-12T11:06:42Z</time>
      </trkpt>
      <trkpt lat="45.94564" lon="4.52729">
        <ele>349</ele>
        <time>2022-06-12T11:07:05Z</time>
      </trkpt>
      <trkpt lat="45.94572" lon="4.52708">
        <ele>351</ele>
        <time>2022-06-12T11:07:27Z</time>
        <extensions>
          <visugpx:TrkExtension xmlns:visugpx="https://www.visugpx.com/editgpx/">
            <visugpx:node>1</visugpx:node>
            </visugpx:TrkExtension>
        </extensions>
      </trkpt>
      <trkpt lat="45.94579" lon="4.52685">
        <ele>357.4</ele>
      </trkpt>
      <trkpt lat="45.94585" lon="4.5266">
        <ele>358.1</ele>
      </trkpt>
      <trkpt lat="45.94589" lon="4.5264">
        <ele>358.3</ele>
      </trkpt>
      <trkpt lat="45.94596" lon="4.52615">
        <ele>358.3</ele>
      </trkpt>
      <trkpt lat="45.946" lon="4.52604">
        <ele>358.1</ele>
      </trkpt>
      <trkpt lat="45.9462" lon="4.52572">
        <ele>355.7</ele>
      </trkpt>
      <trkpt lat="45.94632" lon="4.52559">
        <ele>354.9</ele>
      </trkpt>
      <trkpt lat="45.9464" lon="4.52553">
        <ele>354.5</ele>
      </trkpt>
      <trkpt lat="45.94675" lon="4.52534">
        <ele>352.9</ele>
      </trkpt>
      <trkpt lat="45.9468" lon="4.5253">
        <ele>352.9</ele>
      </trkpt>
      <trkpt lat="45.94689" lon="4.52522">
        <ele>352.7</ele>
      </trkpt>
      <trkpt lat="45.94705" lon="4.52504">
        <ele>351.9</ele>
      </trkpt>
      <trkpt lat="45.94718" lon="4.52487">
        <ele>352.2</ele>
      </trkpt>
      <trkpt lat="45.94731" lon="4.52472">
        <ele>352.7</ele>
      </trkpt>
      <trkpt lat="45.94756" lon="4.52446">
        <ele>353.2</ele>
      </trkpt>
      <trkpt lat="45.94764" lon="4.5244">
        <ele>353.1</ele>
      </trkpt>
      <trkpt lat="45.94789" lon="4.52418">
        <ele>356.8</ele>
      </trkpt>
      <trkpt lat="45.9482" lon="4.52396">
        <ele>358.3</ele>
      </trkpt>
      <trkpt lat="45.9483" lon="4.52387">
        <ele>358.9</ele>
      </trkpt>
      <trkpt lat="45.94834" lon="4.52382">
        <ele>359.6</ele>
      </trkpt>
      <trkpt lat="45.94843" lon="4.52373">
        <ele>359.7</ele>
      </trkpt>
      <trkpt lat="45.94854" lon="4.52358">
        <ele>360.4</ele>
      </trkpt>
      <trkpt lat="45.94877" lon="4.52323">
        <ele>361.1</ele>
      </trkpt>
      <trkpt lat="45.94889" lon="4.52302">
        <ele>362.5</ele>
        <extensions>
          <visugpx:TrkExtension xmlns:visugpx="https://www.visugpx.com/editgpx/">
            <visugpx:node>2</visugpx:node>
            </visugpx:TrkExtension>
        </extensions>
      </trkpt>
      <trkpt lat="45.94891" lon="4.52298">
        <ele>362.4</ele>
      </trkpt>
      <trkpt lat="45.94905" lon="4.52276">
        <ele>362.3</ele>
      </trkpt>
      <trkpt lat="45.94919" lon="4.52251">
        <ele>364</ele>
      </trkpt>
      <trkpt lat="45.94923" lon="4.52239">
        <ele>364.5</ele>
      </trkpt>
      <trkpt lat="45.94928" lon="4.52222">
        <ele>366</ele>
      </trkpt>
      <trkpt lat="45.94939" lon="4.52181">
        <ele>367.5</ele>
      </trkpt>
      <trkpt lat="45.94953" lon="4.52141">
        <ele>368.5</ele>
      </trkpt>
      <trkpt lat="45.94946" lon="4.52146">
        <ele>368.6</ele>
      </trkpt>
      <trkpt lat="45.94936" lon="4.52159">
        <ele>368.4</ele>
        <extensions>
          <visugpx:TrkExtension xmlns:visugpx="https://www.visugpx.com/editgpx/">
            <visugpx:node>3</visugpx:node>
            </visugpx:TrkExtension>
        </extensions>
      </trkpt>
    </trkseg>
  </trk>
</gpx>